Wetterdaten: Donnerstag, 20.02.2014
Datum Zeit Temperatur Luftfeuchte Luftdruck Regen Wind Richtung Richtung Taupunkt Windchill Windben
20.02.2014 00:00 1,1 C 97 % 1016,5 hPa 0,0 l/m 2,3 km/h (1 Bft) O-NO 67 0,7 C 1,1 C 2,7 km/h (1 Bft)
20.02.2014 00:05 1,1 C 97 % 1016,5 hPa 0,0 l/m 2,3 km/h (1 Bft) NO 45 0,7 C 1,0 C 4,7 km/h (1 Bft)
20.02.2014 00:10 1,1 C 97 % 1016,6 hPa 0,0 l/m 1,8 km/h (1 Bft) O 90 0,7 C 1,0 C 0,0 km/h (0 Bft)
20.02.2014 00:15 1,0 C 97 % 1016,6 hPa 0,0 l/m 1,9 km/h (1 Bft) NO 45 0,6 C 0,9 C 4,2 km/h (1 Bft)
20.02.2014 00:20 1,1 C 97 % 1016,6 hPa 0,0 l/m 1,8 km/h (1 Bft) NO 45 0,7 C 0,9 C 4,7 km/h (1 Bft)
20.02.2014 00:25 1,0 C 97 % 1016,6 hPa 0,0 l/m 1,4 km/h (1 Bft) SO 135 0,6 C 0,9 C 0,0 km/h (0 Bft)
20.02.2014 00:30 0,9 C 97 % 1016,1 hPa 0,0 l/m 0,6 km/h (0 Bft) NO 45 0,5 C 0,8 C 0,0 km/h (0 Bft)
20.02.2014 00:35 0,9 C 97 % 1016,1 hPa 0,0 l/m 0,5 km/h (0 Bft) NO 45 0,5 C 0,8 C 2,1 km/h (1 Bft)
20.02.2014 00:40 1,1 C 97 % 1016,1 hPa 0,0 l/m 0,8 km/h (0 Bft) NO 45 0,7 C 1,0 C 0,0 km/h (0 Bft)
20.02.2014 00:45 1,1 C 97 % 1016,1 hPa 0,0 l/m 0,8 km/h (0 Bft) O 90 0,7 C 1,1 C 0,0 km/h (0 Bft)
20.02.2014 00:50 1,3 C 97 % 1016,2 hPa 0,0 l/m 1,3 km/h (1 Bft) NO 45 0,9 C 1,3 C 6,4 km/h (2 Bft)
20.02.2014 00:55 1,4 C 97 % 1016,2 hPa 0,0 l/m 1,6 km/h (1 Bft) SO 135 1,0 C 1,4 C 0,0 km/h (0 Bft)
20.02.2014 01:00 1,0 C 97 % 1016,2 hPa 0,0 l/m 1,0 km/h (0 Bft) S 180 0,6 C 1,4 C 0,0 km/h (0 Bft)
20.02.2014 01:05 1,0 C 97 % 1016,2 hPa 0,0 l/m 0,2 km/h (0 Bft) S-SO 157 0,6 C 1,2 C 0,0 km/h (0 Bft)
20.02.2014 01:10 1,2 C 97 % 1016,2 hPa 0,0 l/m 0,6 km/h (0 Bft) O-SO 112 0,8 C 1,2 C 2,7 km/h (1 Bft)
20.02.2014 01:15 1,3 C 97 % 1016,2 hPa 0,0 l/m 0,8 km/h (0 Bft) O-SO 112 0,9 C 1,3 C 0,0 km/h (0 Bft)
20.02.2014 01:20 1,4 C 97 % 1016,2 hPa 0,0 l/m 0,6 km/h (0 Bft) O 90 1,0 C 1,3 C 0,0 km/h (0 Bft)
20.02.2014 01:25 1,3 C 97 % 1016,2 hPa 0,0 l/m 0,3 km/h (0 Bft) NO 45 0,9 C 1,4 C 0,0 km/h (0 Bft)
20.02.2014 01:30 1,3 C 97 % 1016,5 hPa 0,0 l/m 0,0 km/h (0 Bft) O-SO 112 0,9 C 1,4 C 2,3 km/h (1 Bft)
20.02.2014 01:35 1,5 C 97 % 1016,5 hPa 0,0 l/m 0,6 km/h (0 Bft) O 90 1,1 C 1,5 C 0,0 km/h (0 Bft)
20.02.2014 01:40 1,2 C 97 % 1016,5 hPa 0,0 l/m 0,8 km/h (0 Bft) W-SW 247 0,8 C 1,5 C 0,0 km/h (0 Bft)
20.02.2014 01:45 1,1 C 97 % 1016,5 hPa 0,0 l/m 0,2 km/h (0 Bft) W-SW 247 0,7 C 1,4 C 0,0 km/h (0 Bft)
20.02.2014 01:50 1,0 C 97 % 1016,4 hPa 0,0 l/m 0,0 km/h (0 Bft) W 270 0,6 C 1,3 C 0,0 km/h (0 Bft)
20.02.2014 01:55 1,0 C 97 % 1016,4 hPa 0,0 l/m 0,0 km/h (0 Bft) W-NW 292 0,6 C 1,3 C 0,0 km/h (0 Bft)
20.02.2014 02:00 1,1 C 97 % 1016,4 hPa 0,0 l/m 0,0 km/h (0 Bft) S 180 0,7 C 1,3 C 0,0 km/h (0 Bft)
20.02.2014 02:05 1,4 C 97 % 1016,4 hPa 0,0 l/m 0,5 km/h (0 Bft) O-NO 67 1,0 C 1,3 C 3,7 km/h (1 Bft)
20.02.2014 02:10 1,5 C 97 % 1016,6 hPa 0,0 l/m 1,8 km/h (1 Bft) O 90 1,1 C 1,5 C 5,3 km/h (1 Bft)
20.02.2014 02:15 1,6 C 97 % 1016,6 hPa 0,0 l/m 3,4 km/h (1 Bft) NO 45 1,2 C 1,1 C 6,4 km/h (2 Bft)
20.02.2014 02:20 1,6 C 97 % 1016,6 hPa 0,0 l/m 4,7 km/h (1 Bft) NO 45 1,2 C 0,6 C 7,6 km/h (2 Bft)
20.02.2014 02:25 1,6 C 97 % 1016,6 hPa 0,0 l/m 4,0 km/h (1 Bft) NO 45 1,2 C 1,0 C 2,7 km/h (1 Bft)
20.02.2014 02:30 1,6 C 97 % 1016,6 hPa 0,0 l/m 3,7 km/h (1 Bft) N-NO 22 1,2 C 1,2 C 2,7 km/h (1 Bft)
20.02.2014 02:35 1,5 C 97 % 1016,6 hPa 0,0 l/m 2,6 km/h (1 Bft) NO 45 1,1 C 1,9 C 2,9 km/h (1 Bft)
20.02.2014 02:40 1,5 C 97 % 1016,6 hPa 0,0 l/m 1,0 km/h (0 Bft) NO 45 1,1 C 1,9 C 2,7 km/h (1 Bft)
20.02.2014 02:45 1,5 C 97 % 1016,6 hPa 0,0 l/m 1,3 km/h (1 Bft) NO 45 1,1 C 1,9 C 4,3 km/h (1 Bft)
20.02.2014 02:50 1,6 C 97 % 1016,4 hPa 0,0 l/m 1,9 km/h (1 Bft) NO 45 1,2 C 1,9 C 2,9 km/h (1 Bft)
20.02.2014 02:55 1,6 C 97 % 1016,4 hPa 0,0 l/m 2,6 km/h (1 Bft) N-NO 22 1,2 C 1,9 C 2,9 km/h (1 Bft)
20.02.2014 03:00 1,6 C 97 % 1016,4 hPa 0,0 l/m 2,6 km/h (1 Bft) N 360 1,2 C 1,9 C 3,4 km/h (1 Bft)
20.02.2014 03:05 1,5 C 97 % 1016,4 hPa 0,0 l/m 2,3 km/h (1 Bft) O-NO 67 1,1 C 1,9 C 0,0 km/h (0 Bft)
20.02.2014 03:10 1,6 C 97 % 1016,3 hPa 0,0 l/m 2,1 km/h (1 Bft) O-NO 67 1,2 C 1,8 C 2,7 km/h (1 Bft)
20.02.2014 03:15 1,6 C 97 % 1016,3 hPa 0,0 l/m 1,6 km/h (1 Bft) NO 45 1,2 C 1,8 C 2,3 km/h (1 Bft)
20.02.2014 03:20 1,5 C 97 % 1016,3 hPa 0,0 l/m 1,1 km/h (1 Bft) NO 45 1,1 C 1,8 C 3,2 km/h (1 Bft)
20.02.2014 03:25 1,5 C 97 % 1016,3 hPa 0,0 l/m 1,0 km/h (0 Bft) N-NO 22 1,1 C 1,8 C 0,0 km/h (0 Bft)
20.02.2014 03:30 1,5 C 97 % 1016,4 hPa 0,0 l/m 0,8 km/h (0 Bft) O-NO 67 1,1 C 1,7 C 0,0 km/h (0 Bft)
20.02.2014 03:35 1,4 C 97 % 1016,4 hPa 0,0 l/m 0,6 km/h (0 Bft) NO 45 1,0 C 1,7 C 0,0 km/h (0 Bft)
20.02.2014 03:40 1,3 C 97 % 1016,4 hPa 0,0 l/m 0,8 km/h (0 Bft) SO 135 0,9 C 1,6 C 1,8 km/h (1 Bft)
20.02.2014 03:45 1,4 C 97 % 1016,4 hPa 0,0 l/m 0,6 km/h (0 Bft) NO 45 1,0 C 1,6 C 0,0 km/h (0 Bft)
20.02.2014 03:48 1,4 C 97 % 1016,1 hPa 0,0 l/m 1,0 km/h (0 Bft) O-NO 67 1,0 C 1,6 C 4,2 km/h (1 Bft)
20.02.2014 03:50 1,4 C 97 % 1016,1 hPa 0,0 l/m 1,0 km/h (0 Bft) O-NO 67 1,0 C 1,6 C 4,2 km/h (1 Bft)
20.02.2014 03:55 1,5 C 97 % 1016,1 hPa 0,0 l/m 1,4 km/h (1 Bft) NO 45 1,1 C 1,7 C 3,2 km/h (1 Bft)
20.02.2014 04:00 1,5 C 97 % 1016,1 hPa 0,0 l/m 1,8 km/h (1 Bft) W-NW 292 1,1 C 1,7 C 3,2 km/h (1 Bft)
20.02.2014 04:05 1,3 C 97 % 1016,1 hPa 0,0 l/m 2,3 km/h (1 Bft) N 360 0,9 C 1,7 C 4,7 km/h (1 Bft)
20.02.2014 04:10 1,3 C 97 % 1016,2 hPa 0,0 l/m 2,4 km/h (1 Bft) N 360 0,9 C 1,5 C 0,0 km/h (0 Bft)
20.02.2014 04:15 1,3 C 98 % 1016,2 hPa 0,0 l/m 1,4 km/h (1 Bft) NO 45 1,0 C 1,5 C 0,0 km/h (0 Bft)
20.02.2014 04:20 1,3 C 98 % 1016,2 hPa 0,0 l/m 0,8 km/h (0 Bft) S 180 1,0 C 1,5 C 2,9 km/h (1 Bft)
20.02.2014 04:25 1,1 C 97 % 1016,2 hPa 0,0 l/m 0,6 km/h (0 Bft) S 180 0,7 C 1,4 C 0,0 km/h (0 Bft)
20.02.2014 04:30 1,3 C 98 % 1016,2 hPa 0,0 l/m 0,3 km/h (0 Bft) O-SO 112 1,0 C 1,4 C 0,0 km/h (0 Bft)
20.02.2014 04:35 1,3 C 98 % 1016,2 hPa 0,0 l/m 0,2 km/h (0 Bft) NO 45 1,0 C 1,4 C 0,0 km/h (0 Bft)
20.02.2014 04:40 1,5 C 97 % 1016,2 hPa 0,0 l/m 1,1 km/h (1 Bft) O 90 1,1 C 1,5 C 0,0 km/h (0 Bft)
20.02.2014 04:45 1,5 C 98 % 1016,2 hPa 0,0 l/m 1,0 km/h (0 Bft) O 90 1,2 C 1,6 C 0,0 km/h (0 Bft)
20.02.2014 04:50 1,4 C 98 % 1016,6 hPa 0,0 l/m 0,2 km/h (0 Bft) O 90 1,1 C 1,7 C 0,0 km/h (0 Bft)
20.02.2014 04:55 1,5 C 98 % 1016,6 hPa 0,0 l/m 0,2 km/h (0 Bft) NO 45 1,2 C 1,7 C 2,1 km/h (1 Bft)
20.02.2014 05:00 1,6 C 98 % 1016,6 hPa 0,0 l/m 0,2 km/h (0 Bft) NO 45 1,3 C 1,8 C 2,4 km/h (1 Bft)
20.02.2014 05:05 1,7 C 98 % 1016,6 hPa 0,0 l/m 0,6 km/h (0 Bft) W-NW 292 1,4 C 1,9 C 2,3 km/h (1 Bft)
20.02.2014 05:10 1,6 C 98 % 1016,5 hPa 0,0 l/m 1,4 km/h (1 Bft) NO 45 1,3 C 1,9 C 0,0 km/h (0 Bft)
20.02.2014 05:15 1,6 C 98 % 1016,5 hPa 0,0 l/m 1,0 km/h (0 Bft) O 90 1,3 C 1,9 C 0,0 km/h (0 Bft)
20.02.2014 05:20 1,7 C 98 % 1016,5 hPa 0,0 l/m 1,8 km/h (1 Bft) O-NO 67 1,4 C 2,0 C 3,4 km/h (1 Bft)
20.02.2014 05:25 1,7 C 98 % 1016,5 hPa 0,0 l/m 2,6 km/h (1 Bft) N 360 1,4 C 2,0 C 3,7 km/h (1 Bft)
20.02.2014 05:30 1,7 C 98 % 1016,5 hPa 0,0 l/m 2,1 km/h (1 Bft) NO 45 1,4 C 2,0 C 4,0 km/h (1 Bft)
20.02.2014 05:35 1,7 C 98 % 1016,5 hPa 0,0 l/m 1,4 km/h (1 Bft) N 360 1,4 C 2,0 C 0,0 km/h (0 Bft)
20.02.2014 05:40 1,6 C 98 % 1016,5 hPa 0,0 l/m 0,5 km/h (0 Bft) N-NO 22 1,3 C 1,9 C 0,0 km/h (0 Bft)
20.02.2014 05:45 1,6 C 98 % 1016,5 hPa 0,0 l/m 0,3 km/h (0 Bft) N-NW 337 1,3 C 1,8 C 1,9 km/h (1 Bft)
20.02.2014 05:50 1,5 C 98 % 1016,1 hPa 0,0 l/m 1,0 km/h (0 Bft) O 90 1,2 C 1,8 C 0,0 km/h (0 Bft)
20.02.2014 05:55 1,6 C 98 % 1016,1 hPa 0,0 l/m 0,8 km/h (0 Bft) NO 45 1,3 C 1,7 C 0,0 km/h (0 Bft)
20.02.2014 06:00 1,4 C 98 % 1016,1 hPa 0,0 l/m 0,2 km/h (0 Bft) NO 45 1,1 C 1,5 C 0,0 km/h (0 Bft)
20.02.2014 06:05 1,4 C 98 % 1016,1 hPa 0,0 l/m 0,5 km/h (0 Bft) NO 45 1,1 C 1,5 C 2,4 km/h (1 Bft)
20.02.2014 06:10 1,3 C 98 % 1016,2 hPa 0,0 l/m 0,6 km/h (0 Bft) N 360 1,0 C 1,4 C 2,7 km/h (1 Bft)
20.02.2014 06:15 1,2 C 98 % 1016,2 hPa 0,0 l/m 0,5 km/h (0 Bft) N 360 0,9 C 1,3 C 0,0 km/h (0 Bft)
20.02.2014 06:20 1,1 C 98 % 1016,2 hPa 0,0 l/m 0,5 km/h (0 Bft) NO 45 0,8 C 1,1 C 0,0 km/h (0 Bft)
20.02.2014 06:25 0,9 C 98 % 1016,2 hPa 0,0 l/m 0,3 km/h (0 Bft) NO 45 0,6 C 1,0 C 0,0 km/h (0 Bft)
20.02.2014 06:30 0,8 C 98 % 1015,9 hPa 0,0 l/m 0,0 km/h (0 Bft) O-NO 67 0,5 C 0,9 C 0,0 km/h (0 Bft)
20.02.2014 06:35 0,8 C 98 % 1015,9 hPa 0,0 l/m 0,0 km/h (0 Bft) O-SO 112 0,5 C 0,8 C 0,0 km/h (0 Bft)
20.02.2014 06:40 0,7 C 98 % 1015,9 hPa 0,0 l/m 0,2 km/h (0 Bft) N-NO 22 0,4 C 0,9 C 0,0 km/h (0 Bft)
20.02.2014 06:45 0,9 C 98 % 1015,9 hPa 0,0 l/m 0,2 km/h (0 Bft) NO 45 0,6 C 0,9 C 0,0 km/h (0 Bft)
20.02.2014 06:50 0,9 C 98 % 1016,1 hPa 0,0 l/m 0,5 km/h (0 Bft) S-SW 202 0,6 C 1,0 C 2,6 km/h (1 Bft)
20.02.2014 06:55 0,8 C 98 % 1016,1 hPa 0,0 l/m 0,6 km/h (0 Bft) SW 225 0,5 C 1,1 C 1,9 km/h (1 Bft)
20.02.2014 07:00 0,6 C 98 % 1016,1 hPa 0,0 l/m 0,5 km/h (0 Bft) SW 225 0,3 C 0,9 C 0,0 km/h (0 Bft)
20.02.2014 07:05 0,6 C 98 % 1016,1 hPa 0,0 l/m 0,0 km/h (0 Bft) W-SW 247 0,3 C 0,8 C 0,0 km/h (0 Bft)
20.02.2014 07:10 0,6 C 98 % 1016,1 hPa 0,0 l/m 0,3 km/h (0 Bft) O 90 0,3 C 0,6 C 0,0 km/h (0 Bft)
20.02.2014 07:15 0,6 C 98 % 1016,1 hPa 0,0 l/m 0,8 km/h (0 Bft) O-NO 67 0,3 C 0,5 C 2,7 km/h (1 Bft)
20.02.2014 07:20 0,6 C 98 % 1016,1 hPa 0,0 l/m 1,3 km/h (1 Bft) O 90 0,3 C 0,5 C 0,0 km/h (0 Bft)
20.02.2014 07:25 0,5 C 98 % 1016,1 hPa 0,0 l/m 1,0 km/h (0 Bft) S 180 0,2 C 0,4 C 0,0 km/h (0 Bft)
20.02.2014 07:30 0,6 C 98 % 1016,1 hPa 0,0 l/m 0,0 km/h (0 Bft) N-NO 22 0,3 C 0,4 C 0,0 km/h (0 Bft)
20.02.2014 07:35 0,5 C 98 % 1016,1 hPa 0,0 l/m 0,5 km/h (0 Bft) S 180 0,2 C 0,5 C 7,6 km/h (2 Bft)
20.02.2014 07:40 0,6 C 98 % 1016,1 hPa 0,0 l/m 0,6 km/h (0 Bft) S-SO 157 0,3 C 0,7 C 1,8 km/h (1 Bft)
20.02.2014 07:45 0,6 C 98 % 1016,1 hPa 0,0 l/m 0,6 km/h (0 Bft) S-SO 157 0,3 C 0,7 C 0,0 km/h (0 Bft)
20.02.2014 07:50 0,7 C 98 % 1016,0 hPa 0,0 l/m 0,0 km/h (0 Bft) NO 45 0,4 C 0,8 C 0,0 km/h (0 Bft)
20.02.2014 07:55 0,7 C 98 % 1016,0 hPa 0,0 l/m 0,0 km/h (0 Bft) O-SO 112 0,4 C 0,9 C 0,0 km/h (0 Bft)
20.02.2014 08:00 0,7 C 98 % 1016,0 hPa 0,0 l/m 0,0 km/h (0 Bft) O-NO 67 0,4 C 0,9 C 0,0 km/h (0 Bft)
20.02.2014 08:05 0,8 C 98 % 1016,0 hPa 0,0 l/m 0,0 km/h (0 Bft) O-NO 67 0,5 C 1,0 C 0,0 km/h (0 Bft)
20.02.2014 08:10 1,0 C 98 % 1016,0 hPa 0,0 l/m 0,0 km/h (0 Bft) N-NO 22 0,7 C 1,2 C 0,0 km/h (0 Bft)
20.02.2014 08:15 1,0 C 98 % 1016,0 hPa 0,0 l/m 0,2 km/h (0 Bft) NO 45 0,7 C 1,3 C 0,0 km/h (0 Bft)
20.02.2014 08:20 1,1 C 98 % 1016,0 hPa 0,0 l/m 0,2 km/h (0 Bft) SO 135 0,8 C 1,5 C 0,0 km/h (0 Bft)
20.02.2014 08:25 1,1 C 98 % 1016,0 hPa 0,0 l/m 0,0 km/h (0 Bft) NO 45 0,8 C 1,5 C 0,0 km/h (0 Bft)
20.02.2014 08:30 1,1 C 98 % 1016,0 hPa 0,0 l/m 0,0 km/h (0 Bft) W-NW 292 0,8 C 1,5 C 0,0 km/h (0 Bft)
20.02.2014 08:35 1,1 C 98 % 1016,0 hPa 0,0 l/m 0,0 km/h (0 Bft) W-NW 292 0,8 C 1,5 C 0,0 km/h (0 Bft)
20.02.2014 08:40 1,2 C 98 % 1016,0 hPa 0,0 l/m 0,0 km/h (0 Bft) W-NW 292 0,9 C 1,4 C 0,0 km/h (0 Bft)
20.02.2014 08:45 1,3 C 98 % 1016,0 hPa 0,0 l/m 0,3 km/h (0 Bft) S-SW 202 1,0 C 1,5 C 0,0 km/h (0 Bft)
20.02.2014 08:48 1,3 C 98 % 1015,9 hPa 0,0 l/m 0,3 km/h (0 Bft) O-SO 112 1,0 C 1,5 C 0,0 km/h (0 Bft)
20.02.2014 08:50 1,3 C 98 % 1015,9 hPa 0,0 l/m 0,3 km/h (0 Bft) O-SO 112 1,0 C 1,5 C 0,0 km/h (0 Bft)
20.02.2014 08:55 1,4 C 98 % 1015,9 hPa 0,0 l/m 0,2 km/h (0 Bft) W-SW 247 1,1 C 1,6 C 0,0 km/h (0 Bft)
20.02.2014 09:00 1,5 C 98 % 1015,9 hPa 0,0 l/m 0,3 km/h (0 Bft) NW 315 1,2 C 1,9 C 0,0 km/h (0 Bft)
20.02.2014 09:05 1,6 C 98 % 1015,9 hPa 0,0 l/m 0,6 km/h (0 Bft) N-NO 22 1,3 C 2,0 C 0,0 km/h (0 Bft)
20.02.2014 09:10 1,8 C 98 % 1016,1 hPa 0,0 l/m 0,3 km/h (0 Bft) N-NO 22 1,5 C 2,3 C 0,0 km/h (0 Bft)
20.02.2014 09:15 1,9 C 98 % 1016,1 hPa 0,0 l/m 0,0 km/h (0 Bft) N-NO 22 1,6 C 2,4 C 0,0 km/h (0 Bft)
20.02.2014 09:20 2,2 C 97 % 1016,1 hPa 0,0 l/m 0,3 km/h (0 Bft) W-SW 247 1,8 C 2,8 C 3,4 km/h (1 Bft)
20.02.2014 09:25 2,3 C 97 % 1016,1 hPa 0,0 l/m 1,3 km/h (1 Bft) W-NW 292 1,9 C 2,9 C 4,8 km/h (1 Bft)
20.02.2014 09:30 2,4 C 97 % 1015,9 hPa 0,0 l/m 1,4 km/h (1 Bft) N 360 2,0 C 3,1 C 1,6 km/h (1 Bft)
20.02.2014 09:35 2,3 C 97 % 1015,9 hPa 0,0 l/m 0,6 km/h (0 Bft) N 360 1,9 C 3,3 C 0,0 km/h (0 Bft)
20.02.2014 09:40 2,4 C 97 % 1015,9 hPa 0,0 l/m 0,2 km/h (0 Bft) N-NO 22 2,0 C 3,6 C 0,0 km/h (0 Bft)
20.02.2014 09:45 2,4 C 97 % 1015,9 hPa 0,0 l/m 0,3 km/h (0 Bft) N-NO 22 2,0 C 3,7 C 0,0 km/h (0 Bft)
20.02.2014 09:50 2,7 C 97 % 1016,0 hPa 0,0 l/m 0,3 km/h (0 Bft) W-NW 292 2,3 C 4,0 C 0,0 km/h (0 Bft)
20.02.2014 09:55 2,9 C 97 % 1016,0 hPa 0,0 l/m 0,2 km/h (0 Bft) N-NW 337 2,5 C 4,3 C 0,0 km/h (0 Bft)
20.02.2014 10:00 3,2 C 96 % 1016,0 hPa 0,0 l/m 0,0 km/h (0 Bft) NO 45 2,6 C 4,8 C 1,6 km/h (1 Bft)
20.02.2014 10:05 3,4 C 96 % 1016,0 hPa 0,0 l/m 0,3 km/h (0 Bft) N-NO 22 2,8 C 5,1 C 0,0 km/h (0 Bft)
20.02.2014 10:10 3,8 C 96 % 1015,6 hPa 0,0 l/m 0,3 km/h (0 Bft) W-NW 292 3,2 C 5,6 C 0,0 km/h (0 Bft)
20.02.2014 10:15 4,1 C 96 % 1015,6 hPa 0,0 l/m 0,5 km/h (0 Bft) W 270 3,5 C 5,8 C 3,5 km/h (1 Bft)
20.02.2014 10:20 4,3 C 96 % 1015,6 hPa 0,0 l/m 0,8 km/h (0 Bft) W-NW 292 3,7 C 5,8 C 0,0 km/h (0 Bft)
20.02.2014 10:25 4,6 C 96 % 1015,6 hPa 0,0 l/m 0,6 km/h (0 Bft) N-NO 22 4,0 C 5,9 C 0,0 km/h (0 Bft)
20.02.2014 10:30 5,3 C 95 % 1015,9 hPa 0,0 l/m 0,3 km/h (0 Bft) W-NW 292 4,6 C 7,2 C 2,9 km/h (1 Bft)
20.02.2014 10:35 5,1 C 95 % 1015,9 hPa 0,0 l/m 1,0 km/h (0 Bft) W 270 4,4 C 8,1 C 1,9 km/h (1 Bft)
20.02.2014 10:40 5,1 C 94 % 1015,9 hPa 0,0 l/m 1,3 km/h (1 Bft) W-NW 292 4,2 C 9,7 C 4,5 km/h (1 Bft)
20.02.2014 10:45 5,3 C 92 % 1015,9 hPa 0,0 l/m 2,3 km/h (1 Bft) N 360 4,1 C 10,4 C 2,9 km/h (1 Bft)
20.02.2014 10:50 6,5 C 85 % 1015,8 hPa 0,0 l/m 4,3 km/h (1 Bft) W 270 4,2 C 11,0 C 6,9 km/h (2 Bft)
20.02.2014 10:55 6,4 C 80 % 1015,8 hPa 0,0 l/m 4,3 km/h (1 Bft) W-NW 292 3,2 C 10,8 C 6,4 km/h (2 Bft)
20.02.2014 11:00 5,6 C 76 % 1015,8 hPa 0,0 l/m 3,9 km/h (1 Bft) N 360 1,7 C 10,5 C 4,8 km/h (1 Bft)
20.02.2014 11:05 5,7 C 73 % 1015,8 hPa 0,0 l/m 3,4 km/h (1 Bft) W-NW 292 1,2 C 10,4 C 7,1 km/h (2 Bft)
20.02.2014 11:10 5,4 C 74 % 1015,8 hPa 0,0 l/m 4,2 km/h (1 Bft) NO 45 1,1 C 10,8 C 8,7 km/h (2 Bft)
20.02.2014 11:15 5,5 C 77 % 1015,8 hPa 0,0 l/m 4,8 km/h (1 Bft) N 360 1,8 C 10,9 C 3,4 km/h (1 Bft)
20.02.2014 11:20 5,4 C 78 % 1015,8 hPa 0,0 l/m 5,0 km/h (1 Bft) N-NO 22 1,9 C 11,1 C 2,4 km/h (1 Bft)
20.02.2014 11:25 5,3 C 77 % 1015,8 hPa 0,0 l/m 3,9 km/h (1 Bft) NW 315 1,6 C 10,9 C 3,5 km/h (1 Bft)
20.02.2014 11:30 6,8 C 80 % 1015,9 hPa 0,0 l/m 1,1 km/h (1 Bft) O-NO 67 3,6 C 10,5 C 0,0 km/h (0 Bft)
20.02.2014 11:35 7,1 C 77 % 1015,9 hPa 0,0 l/m 1,8 km/h (1 Bft) NO 45 3,3 C 11,2 C 0,0 km/h (0 Bft)
20.02.2014 11:40 8,5 C 74 % 1015,9 hPa 0,0 l/m 2,1 km/h (1 Bft) W 270 4,1 C 12,7 C 2,7 km/h (1 Bft)
20.02.2014 11:45 8,7 C 67 % 1015,9 hPa 0,0 l/m 2,3 km/h (1 Bft) N 360 2,9 C 13,5 C 6,0 km/h (2 Bft)
20.02.2014 11:50 8,6 C 69 % 1015,8 hPa 0,0 l/m 3,9 km/h (1 Bft) W-NW 292 3,2 C 13,2 C 0,0 km/h (0 Bft)
20.02.2014 11:55 8,7 C 62 % 1015,8 hPa 0,0 l/m 4,8 km/h (1 Bft) N-NW 337 1,8 C 13,2 C 6,8 km/h (2 Bft)
20.02.2014 12:00 8,5 C 60 % 1015,8 hPa 0,0 l/m 4,8 km/h (1 Bft) N 360 1,2 C 12,9 C 8,9 km/h (2 Bft)
20.02.2014 12:05 8,7 C 59 % 1015,8 hPa 0,0 l/m 5,1 km/h (1 Bft) W-NW 292 1,1 C 13,1 C 7,4 km/h (2 Bft)
20.02.2014 12:10 8,0 C 59 % 1015,8 hPa 0,0 l/m 5,3 km/h (1 Bft) N-NW 337 0,5 C 12,9 C 8,0 km/h (2 Bft)
20.02.2014 12:15 8,3 C 57 % 1015,8 hPa 0,0 l/m 6,1 km/h (2 Bft) N-NW 337 0,3 C 12,0 C 7,4 km/h (2 Bft)
20.02.2014 12:20 7,9 C 59 % 1015,8 hPa 0,0 l/m 6,1 km/h (2 Bft) N-NW 337 0,4 C 12,0 C 5,0 km/h (1 Bft)
20.02.2014 12:25 7,8 C 60 % 1015,8 hPa 0,0 l/m 5,0 km/h (1 Bft) N-NO 22 0,5 C 12,4 C 3,5 km/h (1 Bft)
20.02.2014 12:30 7,2 C 62 % 1015,6 hPa 0,0 l/m 3,7 km/h (1 Bft) NO 45 0,4 C 12,0 C 5,6 km/h (1 Bft)
20.02.2014 12:35 7,5 C 61 % 1015,6 hPa 0,0 l/m 3,2 km/h (1 Bft) N 360 0,5 C 11,2 C 6,1 km/h (2 Bft)
20.02.2014 12:40 8,5 C 64 % 1015,6 hPa 0,0 l/m 4,0 km/h (1 Bft) N-NW 337 2,1 C 11,9 C 9,2 km/h (2 Bft)
20.02.2014 12:45 8,2 C 59 % 1015,6 hPa 0,0 l/m 5,1 km/h (1 Bft) N-NO 22 0,7 C 12,2 C 6,0 km/h (2 Bft)
20.02.2014 12:50 8,5 C 59 % 1015,5 hPa 0,0 l/m 5,0 km/h (1 Bft) NO 45 1,0 C 12,6 C 7,9 km/h (2 Bft)
20.02.2014 12:55 7,8 C 57 % 1015,5 hPa 0,0 l/m 4,7 km/h (1 Bft) NO 45 -0,2 C 12,5 C 0,0 km/h (0 Bft)
20.02.2014 13:00 7,8 C 58 % 1015,5 hPa 0,0 l/m 5,5 km/h (1 Bft) W-SW 247 0,1 C 12,4 C 10,5 km/h (2 Bft)
20.02.2014 13:05 7,7 C 57 % 1015,5 hPa 0,0 l/m 5,1 km/h (1 Bft) N-NW 337 -0,3 C 12,2 C 9,8 km/h (2 Bft)
20.02.2014 13:10 8,1 C 59 % 1015,1 hPa 0,0 l/m 5,5 km/h (1 Bft) O-SO 112 0,6 C 12,2 C 2,1 km/h (1 Bft)
20.02.2014 13:15 7,7 C 56 % 1015,1 hPa 0,0 l/m 5,3 km/h (1 Bft) N-NO 22 -0,5 C 12,5 C 7,6 km/h (2 Bft)
20.02.2014 13:20 8,1 C 56 % 1015,1 hPa 0,0 l/m 5,0 km/h (1 Bft) N 360 -0,1 C 12,6 C 11,7 km/h (2 Bft)
20.02.2014 13:25 8,2 C 54 % 1015,1 hPa 0,0 l/m 4,8 km/h (1 Bft) N-NO 22 -0,5 C 12,9 C 6,4 km/h (2 Bft)
20.02.2014 13:30 8,6 C 55 % 1014,9 hPa 0,0 l/m 3,9 km/h (1 Bft) S-SO 157 0,1 C 13,4 C 6,8 km/h (2 Bft)
20.02.2014 13:35 7,8 C 53 % 1014,9 hPa 0,0 l/m 4,3 km/h (1 Bft) N 360 -1,2 C 13,3 C 5,8 km/h (2 Bft)
20.02.2014 13:40 7,0 C 58 % 1014,9 hPa 0,0 l/m 4,8 km/h (1 Bft) N-NO 22 -0,7 C 12,2 C 6,4 km/h (2 Bft)
20.02.2014 13:45 6,5 C 59 % 1014,9 hPa 0,0 l/m 4,2 km/h (1 Bft) N 360 -0,9 C 10,8 C 7,4 km/h (2 Bft)
20.02.2014 13:48 6,3 C 61 % 1014,4 hPa 0,0 l/m 3,4 km/h (1 Bft) N 360 -0,7 C 9,3 C 5,1 km/h (1 Bft)
20.02.2014 13:50 6,3 C 61 % 1014,4 hPa 0,0 l/m 3,4 km/h (1 Bft) N 360 -0,7 C 9,3 C 5,1 km/h (1 Bft)
20.02.2014 13:55 6,3 C 62 % 1014,4 hPa 0,0 l/m 2,9 km/h (1 Bft) N 360 -0,4 C 9,0 C 3,9 km/h (1 Bft)
20.02.2014 14:00 6,1 C 64 % 1014,4 hPa 0,0 l/m 2,4 km/h (1 Bft) N 360 -0,2 C 8,5 C 2,3 km/h (1 Bft)
20.02.2014 14:05 6,3 C 65 % 1014,4 hPa 0,0 l/m 1,9 km/h (1 Bft) NO 45 0,2 C 8,3 C 2,7 km/h (1 Bft)
20.02.2014 14:10 6,3 C 65 % 1014,1 hPa 0,0 l/m 1,9 km/h (1 Bft) NO 45 0,2 C 8,2 C 1,9 km/h (1 Bft)
20.02.2014 14:15 6,5 C 65 % 1014,1 hPa 0,0 l/m 2,1 km/h (1 Bft) N-NW 337 0,4 C 8,3 C 3,9 km/h (1 Bft)
20.02.2014 14:20 6,9 C 66 % 1014,1 hPa 0,0 l/m 1,6 km/h (1 Bft) NW 315 1,0 C 8,5 C 0,0 km/h (0 Bft)
20.02.2014 14:25 7,0 C 61 % 1014,1 hPa 0,0 l/m 2,6 km/h (1 Bft) N 360 0,0 C 8,7 C 7,6 km/h (2 Bft)
20.02.2014 14:30 7,1 C 61 % 1013,9 hPa 0,0 l/m 4,8 km/h (1 Bft) N 360 0,1 C 8,6 C 5,6 km/h (1 Bft)
20.02.2014 14:35 7,2 C 62 % 1013,9 hPa 0,0 l/m 5,3 km/h (1 Bft) N 360 0,4 C 8,4 C 4,5 km/h (1 Bft)
20.02.2014 14:40 7,4 C 62 % 1013,9 hPa 0,0 l/m 4,5 km/h (1 Bft) W-NW 292 0,6 C 8,9 C 4,3 km/h (1 Bft)
20.02.2014 14:45 7,4 C 60 % 1013,9 hPa 0,0 l/m 4,3 km/h (1 Bft) NO 45 0,2 C 8,9 C 4,7 km/h (1 Bft)
20.02.2014 14:50 7,4 C 60 % 1013,6 hPa 0,0 l/m 4,5 km/h (1 Bft) N 360 0,2 C 9,1 C 6,1 km/h (2 Bft)
20.02.2014 14:55 7,4 C 59 % 1013,6 hPa 0,0 l/m 4,7 km/h (1 Bft) N-NW 337 -0,1 C 9,0 C 4,7 km/h (1 Bft)
20.02.2014 15:00 7,7 C 58 % 1013,6 hPa 0,0 l/m 5,0 km/h (1 Bft) N 360 -0,0 C 9,3 C 5,0 km/h (1 Bft)
20.02.2014 15:05 8,7 C 56 % 1013,6 hPa 0,0 l/m 5,0 km/h (1 Bft) N-NW 337 0,4 C 10,1 C 7,2 km/h (2 Bft)
20.02.2014 15:10 9,4 C 54 % 1013,4 hPa 0,0 l/m 5,0 km/h (1 Bft) NO 45 0,6 C 12,1 C 6,0 km/h (2 Bft)
20.02.2014 15:15 9,9 C 53 % 1013,4 hPa 0,0 l/m 4,2 km/h (1 Bft) N 360 0,8 C 12,3 C 7,4 km/h (2 Bft)
20.02.2014 15:20 9,8 C 51 % 1013,4 hPa 0,0 l/m 3,2 km/h (1 Bft) W-NW 292 0,2 C 11,9 C 6,0 km/h (2 Bft)
20.02.2014 15:25 9,4 C 48 % 1013,4 hPa 0,0 l/m 3,9 km/h (1 Bft) NW 315 -1,0 C 11,6 C 4,0 km/h (1 Bft)
20.02.2014 15:30 9,3 C 48 % 1013,4 hPa 0,0 l/m 4,3 km/h (1 Bft) W-NW 292 -1,1 C 11,0 C 7,6 km/h (2 Bft)
20.02.2014 15:35 9,0 C 50 % 1013,4 hPa 0,0 l/m 4,7 km/h (1 Bft) N 360 -0,9 C 10,7 C 6,9 km/h (2 Bft)
20.02.2014 15:40 8,9 C 50 % 1013,4 hPa 0,0 l/m 5,0 km/h (1 Bft) N-NW 337 -0,9 C 10,4 C 4,0 km/h (1 Bft)
20.02.2014 15:45 8,8 C 50 % 1013,4 hPa 0,0 l/m 4,7 km/h (1 Bft) N 360 -1,0 C 10,6 C 5,5 km/h (1 Bft)
20.02.2014 15:50 8,5 C 51 % 1013,2 hPa 0,0 l/m 5,1 km/h (1 Bft) N 360 -1,0 C 10,4 C 7,6 km/h (2 Bft)
20.02.2014 15:55 8,2 C 51 % 1013,2 hPa 0,0 l/m 5,8 km/h (2 Bft) N-NW 337 -1,3 C 10,4 C 6,3 km/h (2 Bft)
20.02.2014 16:00 7,5 C 55 % 1013,2 hPa 0,0 l/m 3,9 km/h (1 Bft) N 360 -0,9 C 10,9 C 1,6 km/h (1 Bft)
20.02.2014 16:05 7,3 C 56 % 1013,2 hPa 0,0 l/m 2,7 km/h (1 Bft) N 360 -0,9 C 10,2 C 3,2 km/h (1 Bft)
20.02.2014 16:10 6,9 C 58 % 1013,1 hPa 0,0 l/m 2,3 km/h (1 Bft) NO 45 -0,8 C 10,5 C 2,9 km/h (1 Bft)
20.02.2014 16:15 6,6 C 58 % 1013,1 hPa 0,0 l/m 1,4 km/h (1 Bft) O 90 -1,1 C 10,6 C 0,0 km/h (0 Bft)
20.02.2014 16:20 6,2 C 59 % 1013,1 hPa 0,0 l/m 1,1 km/h (1 Bft) O 90 -1,2 C 10,3 C 3,2 km/h (1 Bft)
20.02.2014 16:25 6,4 C 59 % 1013,1 hPa 0,0 l/m 1,3 km/h (1 Bft) NO 45 -1,0 C 10,2 C 0,0 km/h (0 Bft)
20.02.2014 16:30 6,1 C 59 % 1013,1 hPa 0,0 l/m 2,1 km/h (1 Bft) NO 45 -1,3 C 11,0 C 4,8 km/h (1 Bft)
20.02.2014 16:35 6,0 C 60 % 1013,1 hPa 0,0 l/m 2,1 km/h (1 Bft) NO 45 -1,2 C 10,6 C 2,9 km/h (1 Bft)
20.02.2014 16:40 5,9 C 63 % 1013,1 hPa 0,0 l/m 3,4 km/h (1 Bft) O-NO 67 -0,6 C 8,8 C 4,2 km/h (1 Bft)
20.02.2014 16:45 5,7 C 64 % 1013,1 hPa 0,0 l/m 3,5 km/h (1 Bft) O-NO 67 -0,6 C 7,8 C 4,5 km/h (1 Bft)
20.02.2014 16:50 5,6 C 65 % 1012,8 hPa 0,0 l/m 4,3 km/h (1 Bft) NO 45 -0,4 C 6,3 C 6,4 km/h (2 Bft)
20.02.2014 16:55 5,4 C 66 % 1012,8 hPa 0,0 l/m 5,1 km/h (1 Bft) O 90 -0,4 C 5,4 C 6,1 km/h (2 Bft)
20.02.2014 17:00 5,3 C 67 % 1012,8 hPa 0,0 l/m 6,1 km/h (2 Bft) O-NO 67 -0,3 C 4,6 C 6,4 km/h (2 Bft)
20.02.2014 17:05 5,2 C 68 % 1012,8 hPa 0,0 l/m 6,0 km/h (2 Bft) O-NO 67 -0,2 C 4,3 C 5,8 km/h (2 Bft)
20.02.2014 17:10 4,8 C 70 % 1012,7 hPa 0,0 l/m 5,6 km/h (1 Bft) O 90 -0,2 C 3,9 C 6,3 km/h (2 Bft)
20.02.2014 17:15 4,8 C 71 % 1012,7 hPa 0,0 l/m 5,5 km/h (1 Bft) O-NO 67 -0,0 C 3,8 C 5,5 km/h (1 Bft)
20.02.2014 17:20 4,7 C 72 % 1012,7 hPa 0,0 l/m 5,3 km/h (1 Bft) O-NO 67 0,1 C 3,4 C 5,3 km/h (1 Bft)
20.02.2014 17:25 4,6 C 72 % 1012,7 hPa 0,0 l/m 5,0 km/h (1 Bft) O-NO 67 -0,0 C 3,5 C 5,3 km/h (1 Bft)
20.02.2014 17:30 4,5 C 72 % 1012,8 hPa 0,0 l/m 5,1 km/h (1 Bft) NO 45 -0,1 C 3,2 C 5,8 km/h (2 Bft)
20.02.2014 17:35 4,2 C 72 % 1012,8 hPa 0,0 l/m 5,1 km/h (1 Bft) O 90 -0,4 C 2,9 C 6,1 km/h (2 Bft)
20.02.2014 17:40 3,9 C 74 % 1012,8 hPa 0,0 l/m 5,8 km/h (2 Bft) NO 45 -0,3 C 2,2 C 6,8 km/h (2 Bft)
20.02.2014 17:45 3,7 C 74 % 1012,8 hPa 0,0 l/m 6,3 km/h (2 Bft) O-NO 67 -0,5 C 1,8 C 7,2 km/h (2 Bft)
20.02.2014 17:50 3,4 C 76 % 1012,6 hPa 0,0 l/m 6,0 km/h (2 Bft) O 90 -0,4 C 1,6 C 4,8 km/h (1 Bft)
20.02.2014 17:55 3,3 C 76 % 1012,6 hPa 0,0 l/m 5,0 km/h (1 Bft) O-NO 67 -0,5 C 1,5 C 5,3 km/h (1 Bft)
20.02.2014 18:00 3,1 C 77 % 1012,6 hPa 0,0 l/m 4,3 km/h (1 Bft) O 90 -0,5 C 1,4 C 3,9 km/h (1 Bft)
20.02.2014 18:05 2,9 C 78 % 1012,6 hPa 0,0 l/m 4,3 km/h (1 Bft) O 90 -0,5 C 1,2 C 4,2 km/h (1 Bft)
20.02.2014 18:10 2,7 C 79 % 1012,5 hPa 0,0 l/m 4,3 km/h (1 Bft) O-NO 67 -0,6 C 1,0 C 3,7 km/h (1 Bft)
20.02.2014 18:15 2,4 C 79 % 1012,5 hPa 0,0 l/m 3,7 km/h (1 Bft) O 90 -0,9 C 1,1 C 3,4 km/h (1 Bft)
20.02.2014 18:20 2,2 C 79 % 1012,5 hPa 0,0 l/m 2,4 km/h (1 Bft) O 90 -1,1 C 1,5 C 2,6 km/h (1 Bft)
20.02.2014 18:25 2,2 C 79 % 1012,5 hPa 0,0 l/m 1,6 km/h (1 Bft) O 90 -1,1 C 1,4 C 0,0 km/h (0 Bft)
20.02.2014 18:30 1,8 C 80 % 1012,2 hPa 0,0 l/m 0,5 km/h (0 Bft) O 90 -1,3 C 1,1 C 0,0 km/h (0 Bft)
20.02.2014 18:35 1,5 C 80 % 1012,2 hPa 0,0 l/m 0,0 km/h (0 Bft) O 90 -1,6 C 0,9 C 0,0 km/h (0 Bft)
20.02.2014 18:40 1,1 C 80 % 1012,2 hPa 0,0 l/m 0,0 km/h (0 Bft) NO 45 -2,0 C 0,6 C 0,0 km/h (0 Bft)
20.02.2014 18:43 0,9 C 81 % 1012,2 hPa 0,0 l/m 0,0 km/h (0 Bft) O-SO 112 -2,0 C 0,6 C 0,0 km/h (0 Bft)
20.02.2014 18:45 0,9 C 81 % 1012,2 hPa 0,0 l/m 0,0 km/h (0 Bft) O-SO 112 -2,0 C 0,6 C 0,0 km/h (0 Bft)
20.02.2014 18:50 0,6 C 81 % 1012,2 hPa 0,0 l/m 0,3 km/h (0 Bft) O 90 -2,3 C 0,5 C 0,0 km/h (0 Bft)
20.02.2014 18:55 0,7 C 82 % 1012,2 hPa 0,0 l/m 0,2 km/h (0 Bft) O-NO 67 -2,0 C 0,6 C 0,0 km/h (0 Bft)
20.02.2014 19:00 0,7 C 82 % 1012,2 hPa 0,0 l/m 0,0 km/h (0 Bft) O-SO 112 -2,0 C 0,4 C 0,0 km/h (0 Bft)
20.02.2014 19:05 0,7 C 83 % 1012,2 hPa 0,0 l/m 0,0 km/h (0 Bft) SO 135 -1,8 C 0,2 C 0,0 km/h (0 Bft)
20.02.2014 19:10 0,3 C 83 % 1012,2 hPa 0,0 l/m 0,0 km/h (0 Bft) O-SO 112 -2,2 C 0,0 C 0,0 km/h (0 Bft)
20.02.2014 19:15 0,1 C 83 % 1012,2 hPa 0,0 l/m 0,0 km/h (0 Bft) O-SO 112 -2,4 C -0,1 C 0,0 km/h (0 Bft)
20.02.2014 19:20 0,1 C 83 % 1012,2 hPa 0,0 l/m 0,0 km/h (0 Bft) O-SO 112 -2,4 C -0,4 C 0,0 km/h (0 Bft)
20.02.2014 19:25 0,1 C 84 % 1012,2 hPa 0,0 l/m 0,0 km/h (0 Bft) O-SO 112 -2,3 C -0,6 C 0,0 km/h (0 Bft)
20.02.2014 19:30 0,4 C 85 % 1012,4 hPa 0,0 l/m 0,0 km/h (0 Bft) O 90 -1,8 C -0,7 C 0,0 km/h (0 Bft)
20.02.2014 19:35 0,3 C 85 % 1012,4 hPa 0,0 l/m 0,0 km/h (0 Bft) S-SW 202 -1,9 C -0,7 C 0,0 km/h (0 Bft)
20.02.2014 19:40 0,0 C 85 % 1012,4 hPa 0,0 l/m 0,0 km/h (0 Bft) S 180 -2,2 C -0,6 C 0,0 km/h (0 Bft)
20.02.2014 19:45 0,0 C 85 % 1012,4 hPa 0,0 l/m 0,0 km/h (0 Bft) S-SW 202 -2,2 C -0,6 C 0,0 km/h (0 Bft)
20.02.2014 19:50 -0,3 C 86 % 1012,2 hPa 0,0 l/m 0,2 km/h (0 Bft) NO 45 -2,3 C -0,3 C 0,0 km/h (0 Bft)
20.02.2014 19:55 -0,4 C 86 % 1012,2 hPa 0,0 l/m 0,3 km/h (0 Bft) N-NO 22 -2,4 C -0,3 C 0,0 km/h (0 Bft)
20.02.2014 20:00 -0,5 C 86 % 1012,2 hPa 0,0 l/m 0,2 km/h (0 Bft) N 360 -2,5 C -0,4 C 0,0 km/h (0 Bft)
20.02.2014 20:05 -0,5 C 86 % 1012,2 hPa 0,0 l/m 0,0 km/h (0 Bft) N-NO 22 -2,5 C -0,4 C 0,0 km/h (0 Bft)
20.02.2014 20:10 -0,3 C 86 % 1012,1 hPa 0,0 l/m 0,2 km/h (0 Bft) N 360 -2,3 C -0,4 C 0,0 km/h (0 Bft)
20.02.2014 20:15 0,0 C 87 % 1012,1 hPa 0,0 l/m 0,2 km/h (0 Bft) N-NW 337 -1,9 C -0,3 C 0,0 km/h (0 Bft)
20.02.2014 20:20 0,1 C 88 % 1012,1 hPa 0,0 l/m 0,0 km/h (0 Bft) N 360 -1,6 C -0,4 C 0,0 km/h (0 Bft)
20.02.2014 20:25 -0,2 C 87 % 1012,1 hPa 0,0 l/m 0,0 km/h (0 Bft) N 360 -2,1 C -0,4 C 0,0 km/h (0 Bft)
20.02.2014 20:30 -0,2 C 88 % 1012,2 hPa 0,0 l/m 0,0 km/h (0 Bft) W-NW 292 -1,9 C -0,6 C 0,0 km/h (0 Bft)
20.02.2014 20:35 -0,5 C 88 % 1012,2 hPa 0,0 l/m 0,0 km/h (0 Bft) NW 315 -2,2 C -0,6 C 0,0 km/h (0 Bft)
20.02.2014 20:40 -0,7 C 88 % 1012,2 hPa 0,0 l/m 0,0 km/h (0 Bft) W-NW 292 -2,4 C -1,0 C 0,0 km/h (0 Bft)
20.02.2014 20:45 -0,8 C 88 % 1012,2 hPa 0,0 l/m 0,0 km/h (0 Bft) N 360 -2,5 C -1,3 C 0,0 km/h (0 Bft)
20.02.2014 20:50 -1,0 C 88 % 1012,2 hPa 0,0 l/m 0,0 km/h (0 Bft) N 360 -2,7 C -1,4 C 0,0 km/h (0 Bft)
20.02.2014 20:55 -1,1 C 88 % 1012,2 hPa 0,0 l/m 0,0 km/h (0 Bft) N 360 -2,8 C -1,4 C 0,0 km/h (0 Bft)
20.02.2014 21:00 -1,5 C 88 % 1012,2 hPa 0,0 l/m 0,0 km/h (0 Bft) N 360 -3,2 C -1,6 C 0,0 km/h (0 Bft)
20.02.2014 21:05 -1,4 C 88 % 1012,2 hPa 0,0 l/m 0,0 km/h (0 Bft) N 360 -3,1 C -1,7 C 0,0 km/h (0 Bft)
20.02.2014 21:10 -1,3 C 88 % 1012,2 hPa 0,0 l/m 0,0 km/h (0 Bft) N 360 -3,0 C -1,8 C 0,0 km/h (0 Bft)
20.02.2014 21:15 -1,3 C 88 % 1012,2 hPa 0,0 l/m 0,0 km/h (0 Bft) N 360 -3,0 C -1,8 C 0,0 km/h (0 Bft)
20.02.2014 21:20 -1,2 C 89 % 1012,2 hPa 0,0 l/m 0,0 km/h (0 Bft) N 360 -2,8 C -1,8 C 0,0 km/h (0 Bft)
20.02.2014 21:25 -1,5 C 89 % 1012,2 hPa 0,0 l/m 0,0 km/h (0 Bft) N 360 -3,1 C -1,9 C 0,0 km/h (0 Bft)
20.02.2014 21:30 -1,2 C 89 % 1012,2 hPa 0,0 l/m 0,2 km/h (0 Bft) NO 45 -2,8 C -2,0 C 2,3 km/h (1 Bft)
20.02.2014 21:35 -1,2 C 89 % 1012,2 hPa 0,0 l/m 0,2 km/h (0 Bft) NO 45 -2,8 C -1,8 C 0,0 km/h (0 Bft)
20.02.2014 21:40 -1,1 C 89 % 1012,2 hPa 0,0 l/m 0,3 km/h (0 Bft) S-SW 202 -2,7 C -1,5 C 2,1 km/h (1 Bft)
20.02.2014 21:45 -1,4 C 89 % 1012,2 hPa 0,0 l/m 1,0 km/h (0 Bft) S 180 -3,0 C -1,4 C 0,0 km/h (0 Bft)
20.02.2014 21:50 -1,2 C 90 % 1012,2 hPa 0,0 l/m 0,6 km/h (0 Bft) N-NO 22 -2,6 C -1,6 C 0,0 km/h (0 Bft)
20.02.2014 21:55 -1,3 C 90 % 1012,2 hPa 0,0 l/m 0,0 km/h (0 Bft) N-NW 337 -2,7 C -1,8 C 0,0 km/h (0 Bft)
20.02.2014 22:00 -1,8 C 90 % 1012,2 hPa 0,0 l/m 0,0 km/h (0 Bft) N-NO 22 -3,2 C -2,1 C 0,0 km/h (0 Bft)
20.02.2014 22:05 -1,6 C 90 % 1012,2 hPa 0,0 l/m 0,0 km/h (0 Bft) W-SW 247 -3,0 C -2,2 C 0,0 km/h (0 Bft)
20.02.2014 22:10 -1,8 C 90 % 1012,0 hPa 0,0 l/m 0,0 km/h (0 Bft) N 360 -3,2 C -2,3 C 0,0 km/h (0 Bft)
20.02.2014 22:15 -1,9 C 90 % 1012,0 hPa 0,0 l/m 0,0 km/h (0 Bft) N 360 -3,3 C -2,3 C 0,0 km/h (0 Bft)
20.02.2014 22:20 -2,1 C 90 % 1012,0 hPa 0,0 l/m 0,3 km/h (0 Bft) W-SW 247 -3,5 C -2,3 C 1,8 km/h (1 Bft)
20.02.2014 22:25 -1,8 C 90 % 1012,0 hPa 0,0 l/m 0,6 km/h (0 Bft) S-SW 202 -3,2 C -2,0 C 1,8 km/h (1 Bft)
20.02.2014 22:30 -1,5 C 90 % 1011,8 hPa 0,0 l/m 1,0 km/h (0 Bft) W-SW 247 -2,9 C -1,5 C 2,6 km/h (1 Bft)
20.02.2014 22:35 -1,5 C 90 % 1011,8 hPa 0,0 l/m 0,6 km/h (0 Bft) W-SW 247 -2,9 C -1,4 C 0,0 km/h (0 Bft)
20.02.2014 22:40 -1,3 C 91 % 1011,8 hPa 0,0 l/m 0,3 km/h (0 Bft) W 270 -2,6 C -1,5 C 0,0 km/h (0 Bft)
20.02.2014 22:45 -1,4 C 91 % 1011,8 hPa 0,0 l/m 0,8 km/h (0 Bft) W-SW 247 -2,7 C -1,4 C 3,9 km/h (1 Bft)
20.02.2014 22:50 -1,3 C 91 % 1011,7 hPa 0,0 l/m 0,8 km/h (0 Bft) N 360 -2,6 C -1,4 C 0,0 km/h (0 Bft)
20.02.2014 22:55 -1,5 C 91 % 1011,7 hPa 0,0 l/m 0,8 km/h (0 Bft) W-SW 247 -2,8 C -1,4 C 2,9 km/h (1 Bft)
20.02.2014 23:00 -1,3 C 91 % 1011,7 hPa 0,0 l/m 1,6 km/h (1 Bft) W 270 -2,6 C -1,3 C 1,9 km/h (1 Bft)
20.02.2014 23:05 -1,3 C 91 % 1011,7 hPa 0,0 l/m 1,3 km/h (1 Bft) W-NW 292 -2,6 C -1,4 C 0,0 km/h (0 Bft)
20.02.2014 23:10 -1,6 C 91 % 1011,6 hPa 0,0 l/m 0,0 km/h (0 Bft) W-NW 292 -2,9 C -1,7 C 2,3 km/h (1 Bft)
20.02.2014 23:15 -1,8 C 91 % 1011,6 hPa 0,0 l/m 0,2 km/h (0 Bft) N-NW 337 -3,1 C -1,8 C 0,0 km/h (0 Bft)
20.02.2014 23:20 -1,7 C 91 % 1011,6 hPa 0,0 l/m 0,5 km/h (0 Bft) SW 225 -3,0 C -2,0 C 4,5 km/h (1 Bft)
20.02.2014 23:25 -1,9 C 91 % 1011,6 hPa 0,0 l/m 0,8 km/h (0 Bft) W-SW 247 -3,2 C -1,9 C 3,5 km/h (1 Bft)
20.02.2014 23:30 -1,9 C 91 % 1011,4 hPa 0,0 l/m 1,1 km/h (1 Bft) S 180 -3,2 C -1,9 C 0,0 km/h (0 Bft)
20.02.2014 23:35 -1,7 C 91 % 1011,4 hPa 0,0 l/m 0,5 km/h (0 Bft) SW 225 -3,0 C -1,9 C 0,0 km/h (0 Bft)
20.02.2014 23:40 -1,8 C 91 % 1011,4 hPa 0,0 l/m 0,3 km/h (0 Bft) O-SO 112 -3,1 C -1,9 C 0,0 km/h (0 Bft)
20.02.2014 23:43 -2,0 C 91 % 1011,4 hPa 0,0 l/m 0,3 km/h (0 Bft) SO 135 -3,3 C -2,0 C 0,0 km/h (0 Bft)
20.02.2014 23:45 -2,0 C 91 % 1011,4 hPa 0,0 l/m 0,3 km/h (0 Bft) SO 135 -3,3 C -2,0 C 0,0 km/h (0 Bft)
20.02.2014 23:50 -2,2 C 91 % 1011,4 hPa 0,0 l/m 0,0 km/h (0 Bft) SO 135 -3,5 C -2,1 C 0,0 km/h (0 Bft)
20.02.2014 23:55 -1,9 C 91 % 1011,4 hPa 0,0 l/m 0,0 km/h (0 Bft) W-SW 247 -3,2 C -2,3 C 0,0 km/h (0 Bft)
_ Min-Zeit 23:50 15:30 23:55 - 23:55 - - 22:20 23:55 23:55
Minimum _ -2,2 C 48 % 1011,4 hPa - 0,0 km/h (0 Bft) - - -3,5 C -2,3 C 0,0 km/h (0 Bft)
_ Max-Zeit 15:15 09:15 05:05 23:55 17:45 - - 10:30 11:45 13:20
Maximum _ 9,9 C 98 % 1016,6 hPa 0,0 l/m 6,3 km/h
O-NO (2 Bft)
- - 4,6 C 13,5 C 11,7 km/h
N (2 Bft)
Durchschnitt _ 2,7 C 84 % 1014,6 hPa #0,0 l/m 1,8 km/h (1 Bft) NO - 0,0 C 3,5 C 2,3 km/h (1 Bft)